W2GR Weather Reports


time (UTC)temp
C
wind
direction
speed
KPH
gust
KPH
rain 1hr
cm
rain 24hr
cm
rain mn
cm
humidity
%
barometer
mb
20260509223005 15 249 6.4 16.1 0.00 0.00 0.00 73 1001.6
20260509220052 15 219 3.2 9.7 0.00 0.00 0.00 72 1001.0
20260509214548 15 215 4.8 8.0 0.00 0.00 0.00 72 1001.3
20260509213049 15 209 4.8 9.7 0.00 0.00 0.00 72 1001.4
20260509210044 16 205 3.2 12.9 0.00 0.00 0.00 70 1001.6
20260509204544 16 172 4.8 12.9 0.00 0.00 0.00 68 1002.0
20260509204541 16 190 4.8 12.9 0.00 0.00 0.00 68 1002.0
20260509203100 16 205 6.4 20.9 0.00 0.00 0.00 68 1002.2
20260509201540 16 204 4.8 17.7 0.00 0.00 0.00 68 1002.0
20260509200009 16 196 6.4 20.9 0.00 0.00 0.00 67 1002.2
20260509194506 16 219 12.9 22.5 0.00 0.00 0.00 66 1002.4
20260509193004 16 231 8.0 24.1 0.00 0.00 0.00 67 1002.4
20260509191501 16 187 11.3 25.7 0.00 0.00 0.00 67 1002.8
20260509190106 16 245 6.4 25.7 0.00 0.00 0.00 68 1003.1
20260509184601 16 221 9.7 19.3 0.00 0.00 0.00 67 1003.0
20260509183055 16 212 11.3 25.7 0.00 0.00 0.00 65 1003.3
20260509181559 16 209 8.0 24.1 0.00 0.00 0.00 67 1003.3
20260509180056 16 204 11.3 24.1 0.00 0.00 0.00 69 1003.4
20260509174548 15 245 8.0 22.5 0.00 0.00 0.00 70 1003.4
20260509173043 15 148 6.4 19.3 0.00 0.00 0.00 70 1003.9
20260509171542 15 227 11.3 25.7 0.00 0.00 0.00 71 1004.4
20260509170040 15 229 8.0 24.1 0.00 0.00 0.00 71 1004.4
20260509164539 15 203 6.4 25.7 0.00 0.00 0.00 70 1004.2
20260509163033 15 214 11.3 20.9 0.00 0.00 0.00 71 1004.5
20260509161535 15 226 6.4 20.9 0.00 0.00 0.00 71 1004.7
20260509160032 15 226 11.3 24.1 0.00 0.00 0.00 72 1004.8
20260509154531 15 252 6.4 19.3 0.00 0.00 0.00 73 1004.6
20260509153026 15 252 6.4 16.1 0.00 0.00 0.00 73 1004.7
20260509151524 14 220 3.2 9.7 0.00 0.00 0.00 75 1004.7
20260509150021 13 239 3.2 16.1 0.00 0.03 0.00 76 1004.9
20260509144529 13 195 8.0 14.5 0.00 0.03 0.00 77 1005.0
20260509143051 13 189 6.4 14.5 0.00 0.03 0.00 78 1005.0
20260509141545 13 155 6.4 14.5 0.00 0.03 0.00 80 1005.1
20260509140042 13 191 6.4 14.5 0.00 0.03 0.00 82 1005.2
20260509134537 12 206 3.2 12.9 0.00 0.03 0.00 83 1005.5
20260509133036 12 181 6.4 17.7 0.00 0.03 0.00 83 1005.6
20260509131534 12 193 6.4 14.5 0.00 0.03 0.00 82 1005.6
20260509130049 12 228 6.4 16.1 0.00 0.03 0.00 84 1005.6
20260509124538 11 201 3.2 16.1 0.00 0.03 0.00 85 1005.5
20260509123030 11 184 4.8 16.1 0.00 0.03 0.00 87 1005.6
20260509121529 10 153 4.8 9.7 0.00 0.03 0.00 88 1005.9
20260509120031 10 208 3.2 11.3 0.00 0.03 0.00 88 1005.9
20260509114525 9 141 3.2 8.0 0.00 0.03 0.00 90 1005.9
20260509113023 8 175 1.6 6.4 0.00 0.03 0.00 90 1005.9
20260509111522 7 155 3.2 9.7 0.00 0.03 0.00 90 1005.8
20260509110021 7 196 1.6 4.8 0.00 0.03 0.00 90 1005.9
20260509104515 -17 0.0 0.0 0.00 0.03 0.00 1005.9
20260509103016 -17 0.0 0.0 0.00 0.03 0.00 1006.1
20260509101508 -17 0.0 0.0 0.00 0.03 0.00 1006.1
20260509100100 -17 0.0 0.0 0.00 0.03 0.00 1006.0
20260509094556 -17 0.0 0.0 0.00 0.03 0.00 1006.1
20260509093051 -17 0.0 0.0 0.00 0.03 0.00 1006.1
20260509091546 -17 0.0 0.0 0.00 0.03 0.00 1006.0
20260509090040 -17 0.0 0.0 0.00 0.03 0.00 1006.1
20260509084538 -17 0.0 0.0 0.00 0.03 0.00 1006.1
20260509083037 -17 0.0 0.0 0.00 0.03 0.00 1006.2
20260509081529 -17 0.0 0.0 0.00 0.03 0.00 1006.3
20260509080033 -17 0.0 0.0 0.00 0.03 0.00 1006.3
20260509074516 -17 0.0 0.0 0.00 0.03 0.00 1006.3
20260509073011 -17 0.0 0.0 0.00 0.03 0.00 1006.5
20260509071507 -17 0.0 0.0 0.00 0.03 0.00 1006.6
20260509070002 -17 0.0 0.0 0.00 0.03 0.00 1006.7
20260509064556 -17 0.0 0.0 0.00 0.03 0.00 1006.9
20260509063052 -17 0.0 0.0 0.00 0.03 0.00 1007.0
20260509061603 -17 0.0 0.0 0.00 0.03 0.00 1007.2
20260509060101 -17 0.0 0.0 0.00 0.03 0.00 1007.6
20260509054508 -17 0.0 0.0 0.00 0.03 0.00 1007.8
20260509053005 -17 0.0 0.0 0.00 0.03 0.00 1007.9
20260509051559 -17 0.0 0.0 0.00 0.03 0.00 1008.1
20260509050119 -17 0.0 0.0 0.00 0.03 0.00 1008.0
20260509044558 -17 0.0 0.0 0.00 0.03 0.00 1008.2
20260509043047 7 146 1.6 6.4 0.00 0.03 0.00 65 1008.3
20260509041545 7 187 1.6 4.8 0.00 0.03 0.00 64 1008.6
20260509040043 7 162 1.6 4.8 0.00 0.03 0.00 63 1008.6
20260509034544 7 200 3.2 6.4 0.00 0.03 0.00 61 1008.7
20260509033043 7 166 1.6 6.4 0.00 0.03 0.00 62 1008.8
20260509031546 7 209 1.6 4.8 0.00 0.03 0.00 63 1009.0
20260509030040 7 205 1.6 3.2 0.00 0.03 0.00 61 1009.0
20260509024535 7 200 1.6 4.8 0.00 0.03 0.00 59 1009.2
20260509023038 7 203 1.6 4.8 0.00 0.03 0.00 60 1009.2
20260509021502 7 141 1.6 4.8 0.00 0.03 0.00 57 1009.2
20260509020100 7 189 0.0 1.6 0.00 0.18 0.00 57 1009.1
20260509014554 7 205 0.0 1.6 0.00 0.18 0.00 58 1008.9
20260509013059 7 205 0.0 0.0 0.00 0.18 0.00 56 1008.8
20260509011549 8 205 0.0 0.0 0.00 0.18 0.00 54 1008.7
20260509010047 8 205 0.0 3.2 0.00 0.20 0.00 47 1008.8
20260509004541 9 212 0.0 3.2 0.00 0.20 0.00 45 1008.7
20260509003045 10 209 1.6 4.8 0.00 0.20 0.00 40 1008.8
20260509001532 11 214 1.6 6.4 0.00 0.20 0.00 39 1008.7
20260509000036 11 212 1.6 4.8 0.00 0.79 0.00 37 1008.4
20260508234600 11 197 3.2 9.7 0.00 0.79 0.00 35 1008.4
20260508233056 11 203 3.2 9.7 0.00 0.79 0.00 37 1008.4
20260508231548 12 225 3.2 9.7 0.00 0.79 0.00 41 1008.4
20260508230050 12 215 4.8 12.9 0.00 0.99 0.00 41 1008.4
20260508224545 12 178 4.8 12.9 0.00 0.99 0.00 42 1008.3
20260508223041 12 207 4.8 12.9 0.00 0.99 0.00 42 1008.4